Location: Newark
(35.2672°N, 80.7344°W)
Time: 02:35:38
(UTC+00:00)

Vanguard 1 - Pass Details

Date: 30 January 2020
Orbit: 650 x 3833 km, 34.2° (Epoch: 25 February)

Event Time Altitude Azimuth Distance (km) Brightness Sun altitude
Rises 23:36:56 0° 275° (W) 2,988 14.1 -10.2°
Reaches altitude 10° 23:39:10 10° 273° (W) 2,043 13.1 -10.6°
Maximum altitude 23:43:31 66° 191° (S) 755 9.6 -11.5°
Enters shadow 23:48:42 11° 109° (ESE) 2,432 11.6 -12.5°
